Weather History for Boonville, MO

Change the Weather History Date:

Saturday, December 1, 2012

  Actual Average Record
Temperature  
Mean Temperature 56 °F -  
Max Temperature 67 °F 46 °F 70 °F (1970)
Min Temperature 44 °F 28 °F 2 °F (1964)
Degree Days  
Heating Degree Days 10    
Growing Degree Days 6 (Base 50)    
Moisture  
Dew Point 52 °F    
Average Humidity 79    
Maximum Humidity 95    
Minimum Humidity 66    
Precipitation  
Precipitation 0.00 in - - ()
Sea Level Pressure  
Sea Level Pressure 29.93 in    
Wind  
Wind Speed 8 mph (SSE)    
Max Wind Speed 16 mph    
Max Gust Speed 22 mph    
Visibility 10 miles    
Events      
Averages and records for this station are not official NWS values.
T = Trace of Precipitation, MM = Missing Value Source: NWS Daily Summary

Daily Weather History Graph

Daily Weather History Graph

Search for Another Location

Airport:

Trip Planner

Search our weather history database for the weather conditions in past years. The results will help you decide how hot, cold, wet, or windy it might be!

Date:

Astronomy

Dec. 01, 2012 Rise Set
Actual Time 7:10 AM CST 4:48 PM CST
Civil Twilight 6:41 AM CST 5:18 PM CST
Nautical Twilight 6:08 AM CST 5:51 PM CST
Astronomical Twilight 5:36 AM CST 6:23 PM CST
Moon 7:38 PM CST (12/1) 9:24 AM CST (12/1)
Length of Visible Light 10h 36m
Length of Day
9h 37m
Waning Gibbous, 91% of the Moon is Illuminated
Dec 1
Waning Gibbous
Dec 6
Last Quarter
Dec 13
New
Dec 19
First Quarter
Dec 28
Full

Hourly Weather History & Observations

Time (CST) Temp. Windchill Dew Point Humidity Pressure Visibility Wind Dir Wind Speed Gust Speed Precip Events Conditions
12:15 AM 45.1 °F 42.8 °F 43.0 °F 92% 30.04 in 10.0 mi SE 4.6 mph - N/A   Clear
12:35 AM 45.1 °F 42.8 °F 43.2 °F 93% 30.05 in 10.0 mi SSE 4.6 mph - N/A   Clear
12:55 AM 44.8 °F 43.3 °F 43.2 °F 94% 30.05 in 10.0 mi SSE 3.5 mph - N/A   Clear
1:15 AM 45.3 °F 43.0 °F 43.9 °F 95% 30.05 in 10.0 mi SSE 4.6 mph - N/A   Clear
1:35 AM 45.3 °F 42.3 °F 43.7 °F 94% 30.04 in 10.0 mi SSE 5.8 mph - N/A   Clear
1:55 AM 46.0 °F 42.5 °F 44.2 °F 93% 30.05 in 10.0 mi SSE 6.9 mph - N/A   Clear
2:15 AM 46.4 °F 42.9 °F 44.6 °F 93% 30.04 in 10.0 mi SSE 6.9 mph - N/A   Clear
2:35 AM 47.3 °F - 45.3 °F 93% 30.05 in 10.0 mi South 4.6 mph - N/A   Scattered Clouds
2:55 AM 49.5 °F - 46.8 °F 90% 30.04 in 10.0 mi South 6.9 mph - N/A   Mostly Cloudy
3:15 AM 50.5 °F - 48.0 °F 91% 30.04 in 10.0 mi SSE 5.8 mph - N/A   Mostly Cloudy
3:35 AM 49.8 °F - 47.7 °F 92% 30.04 in 10.0 mi SSE 4.6 mph - N/A   Scattered Clouds
3:55 AM 50.0 °F - 48.0 °F 93% 30.03 in 10.0 mi SSE 8.1 mph - N/A   Mostly Cloudy
4:15 AM 51.3 °F - 49.1 °F 92% 30.03 in 10.0 mi SE 5.8 mph - N/A   Overcast
4:35 AM 52.2 °F - 49.8 °F 92% 30.03 in 10.0 mi SE 8.1 mph - N/A   Overcast
4:55 AM 52.9 °F - 50.2 °F 91% 30.02 in 10.0 mi SE 8.1 mph - N/A   Overcast
5:15 AM 53.2 °F - 50.5 °F 91% 30.02 in 10.0 mi SSE 9.2 mph - N/A   Overcast
5:35 AM 53.6 °F - 50.9 °F 91% 30.01 in 10.0 mi SSE 9.2 mph - N/A   Overcast
5:55 AM 53.8 °F - 51.1 °F 91% 30.00 in 10.0 mi SSE 12.7 mph - N/A   Overcast
6:15 AM 54.1 °F - 51.3 °F 90% 30.00 in 10.0 mi SSE 9.2 mph - N/A   Mostly Cloudy
6:35 AM 54.0 °F - 51.3 °F 91% 30.00 in 10.0 mi SSE 9.2 mph - N/A   Mostly Cloudy
6:55 AM 53.6 °F - 51.4 °F 92% 29.99 in 10.0 mi SSE 8.1 mph - N/A   Mostly Cloudy
7:15 AM 54.3 °F - 52.2 °F 92% 29.99 in 10.0 mi SSE 9.2 mph - N/A   Overcast
7:35 AM 55.2 °F - 52.3 °F 90% 29.99 in 10.0 mi SE 13.8 mph - N/A   Overcast
7:55 AM 55.4 °F - 52.5 °F 90% 29.98 in 10.0 mi SSE 11.5 mph 20.7 mph N/A   Overcast
8:15 AM 56.1 °F - 52.9 °F 89% 29.98 in 10.0 mi SSE 12.7 mph - N/A   Overcast
8:35 AM 56.3 °F - 52.9 °F 88% 29.98 in 10.0 mi SSE 9.2 mph - N/A   Overcast
8:55 AM 56.8 °F - 53.1 °F 87% 29.98 in 10.0 mi SE 10.4 mph - N/A   Overcast
9:15 AM 57.6 °F - 53.4 °F 86% 29.98 in 10.0 mi SSE 11.5 mph 17.3 mph N/A   Overcast
9:35 AM 58.5 °F - 53.4 °F 83% 29.98 in 10.0 mi SSE 15.0 mph 18.4 mph N/A   Overcast
9:55 AM 59.2 °F - 52.7 °F 79% 29.97 in 10.0 mi SSE 12.7 mph - N/A   Overcast
10:15 AM 60.3 °F - 53.1 °F 77% 29.97 in 10.0 mi SSE 12.7 mph 18.4 mph N/A   Overcast
10:35 AM 61.2 °F - 53.4 °F 76% 29.96 in 10.0 mi SSE 13.8 mph 21.9 mph N/A   Overcast
10:55 AM 61.7 °F - 53.6 °F 75% 29.95 in 10.0 mi SSE 15.0 mph 19.6 mph N/A   Overcast
11:15 AM 62.6 °F - 53.8 °F 73% 29.94 in 10.0 mi South 13.8 mph 18.4 mph N/A   Overcast
11:35 AM 63.0 °F - 54.0 °F 72% 29.93 in 10.0 mi South 16.1 mph 20.7 mph N/A   Overcast
11:55 AM 63.5 °F - 54.3 °F 72% 29.91 in 10.0 mi SSE 15.0 mph 18.4 mph N/A   Overcast
12:15 PM 64.0 °F - 54.5 °F 71% 29.90 in 10.0 mi SSE 15.0 mph 20.7 mph N/A   Overcast
12:35 PM 64.6 °F - 54.7 °F 70% 29.89 in 10.0 mi SSE 11.5 mph 18.4 mph N/A   Overcast
12:55 PM 65.1 °F - 54.9 °F 69% 29.88 in 10.0 mi SSE 11.5 mph 17.3 mph N/A   Scattered Clouds
1:15 PM 65.7 °F - 55.2 °F 69% 29.88 in 10.0 mi South 10.4 mph - N/A   Mostly Cloudy
1:35 PM 66.0 °F - 55.4 °F 69% 29.88 in 10.0 mi SSE 10.4 mph 16.1 mph N/A   Overcast
1:55 PM 66.2 °F - 55.6 °F 69% 29.87 in 10.0 mi SSE 8.1 mph 16.1 mph N/A   Overcast
2:15 PM 66.6 °F - 55.6 °F 68% 29.87 in 10.0 mi South 11.5 mph - N/A   Overcast
2:35 PM 66.9 °F - 55.8 °F 67% 29.86 in 10.0 mi SSE 9.2 mph - N/A   Overcast
2:55 PM 66.9 °F - 55.8 °F 67% 29.87 in 10.0 mi South 8.1 mph - N/A   Overcast
3:15 PM 66.9 °F - 55.6 °F 67% 29.85 in 10.0 mi SE 10.4 mph - N/A   Overcast
3:35 PM 67.1 °F - 55.6 °F 66% 29.85 in 10.0 mi SSE 9.2 mph - N/A   Mostly Cloudy
3:55 PM 66.6 °F - 55.4 °F 67% 29.85 in 10.0 mi SSE 8.1 mph - N/A   Mostly Cloudy
4:15 PM 65.8 °F - 55.4 °F 69% 29.85 in 10.0 mi SSE 9.2 mph - N/A   Mostly Cloudy
4:35 PM 65.5 °F - 55.2 °F 69% 29.85 in 10.0 mi SSE 10.4 mph - N/A   Scattered Clouds
4:55 PM 64.9 °F - 55.0 °F 70% 29.85 in 10.0 mi SSE 9.2 mph - N/A   Mostly Cloudy
5:15 PM 65.1 °F - 55.0 °F 70% 29.85 in 10.0 mi SSE 11.5 mph - N/A   Overcast
5:35 PM 65.7 °F - 54.9 °F 68% 29.85 in 10.0 mi SSE 10.4 mph - N/A   Overcast
5:55 PM 65.3 °F - 54.7 °F 68% 29.85 in 10.0 mi SE 9.2 mph - N/A   Mostly Cloudy
6:15 PM 64.6 °F - 54.7 °F 70% 29.86 in 10.0 mi SSE 9.2 mph - N/A   Mostly Cloudy
6:35 PM 64.4 °F - 54.7 °F 71% 29.86 in 10.0 mi SSE 10.4 mph - N/A   Overcast
6:55 PM 64.6 °F - 54.9 °F 71% 29.85 in 10.0 mi SSE 9.2 mph - N/A   Overcast
7:15 PM 65.1 °F - 54.9 °F 69% 29.85 in 10.0 mi SSE 11.5 mph 16.1 mph N/A   Overcast
7:35 PM 65.7 °F - 54.9 °F 68% 29.85 in 10.0 mi SSE 13.8 mph - N/A   Overcast
7:55 PM 66.0 °F - 55.0 °F 68% 29.86 in 10.0 mi South 11.5 mph - N/A   Overcast
8:15 PM 65.8 °F - 55.0 °F 68% 29.86 in 10.0 mi South 10.4 mph - N/A   Overcast
8:35 PM 65.8 °F - 54.9 °F 68% 29.86 in 10.0 mi South 11.5 mph - N/A   Overcast
8:55 PM 65.7 °F - 55.2 °F 69% 29.87 in 10.0 mi South 3.5 mph - N/A   Overcast
9:15 PM 65.5 °F - 55.2 °F 69% 29.87 in 10.0 mi South 4.6 mph - N/A   Overcast
9:35 PM 65.5 °F - 55.0 °F 69% 29.87 in 10.0 mi South 6.9 mph - N/A   Overcast
9:55 PM 65.7 °F - 55.0 °F 69% 29.88 in 10.0 mi South 6.9 mph - N/A   Overcast
10:15 PM 65.1 °F - 54.9 °F 69% 29.88 in 10.0 mi South 8.1 mph - N/A   Overcast
10:35 PM 64.6 °F - 54.9 °F 71% 29.88 in 10.0 mi South 6.9 mph - N/A   Overcast
10:55 PM 64.6 °F - 55.0 °F 71% 29.88 in 10.0 mi South 5.8 mph - N/A   Mostly Cloudy
11:15 PM 64.4 °F - 54.9 °F 71% 29.88 in 10.0 mi SSW 5.8 mph - N/A   Overcast
11:35 PM 63.9 °F - 55.0 °F 73% 29.88 in 10.0 mi South 5.8 mph - N/A   Overcast
11:55 PM 63.7 °F - 55.0 °F 73% 29.89 in 10.0 mi South 4.6 mph - N/A   Overcast